Flag for Brazil Weather past 2 weeks in Manaus, Amazonas, Brazil

Now
79 °F

Clear.


Feels Like: 81 °F
Forecast: 79 / 97 °F
Wind: 2 mph from Southeast

Location: Manaus Aeroporto

Current Time: Oct 1, 2014 at 5:15:07 AM

Latest Report: Oct 1, 2014 at 5:00 AM


Visibility: 10 mi

Pressure: 29.86 "Hg

Humidity: 74%

Dew point: 70 °F

Location of ManausLocation

Historic Weather in Manaus — Graph

°F

Manaus temperature yesterday

Maximum temperature yesterday: 95 °F (at 1:00 PM)
Minimum temperature yesterday: 81 °F (at 4:00 AM)
Average temperature yesterday: 87 °F

Past Weeks' High & Low Weather Summary

 TemperatureHumidityPressure
High97 °F (Sep 22, 2:00 PM)94% (Sep 25, 6:00 AM)29.98 "Hg (Sep 25, 6:00 AM)
Low73 °F (Sep 18, 4:00 AM)37% (Sep 22, 2:00 PM)29.77 "Hg (Sep 16, 4:00 PM)
Average85 °F65%29.87 "Hg
* Reported Sep 16 4:00 AM — Oct 1 4:00 AM, Manaus, Weather by CustomWeather, © 2014

Note: Actual official high and low records may vary slightly from our data, if they occured in-between our weather recording intervals... More about our weather records

Advertising

Manaus weather history for previous 24 hours

 ConditionsComfort  
Time TempWeatherWind HumidityBarometerVisibility
4:00 AM
Oct 1
79 °FClear.2 mph74%29.86 "Hg10 mi
3:00 AM79 °FClear.3 mph74%29.83 "Hg10 mi
2:00 AM81 °FClear.3 mph74%29.86 "Hg10 mi
1:00 AM81 °FClear.3 mph74%29.86 "Hg10 mi
12:00 AM81 °FClear.2 mph74%29.86 "Hg10 mi
11:00 PM
Sep 30
82 °FClear.2 mph70%29.89 "Hg10 mi
10:00 PM84 °FClear.2 mph66%29.89 "Hg10 mi
9:00 PM84 °FClear.2 mph66%29.86 "Hg10 mi
8:00 PM86 °FClear.2 mph62%29.86 "Hg10 mi
7:00 PM86 °FClear.3 mph62%29.83 "Hg10 mi
6:00 PM90 °FPassing clouds.6 mph49%29.80 "HgN/A
5:00 PM90 °FScattered clouds.6 mph49%29.80 "HgN/A
4:00 PM91 °FScattered showers. Passing clouds.7 mph49%29.80 "HgN/A
3:00 PM95 °FPassing clouds.7 mph41%29.83 "HgN/A
2:00 PM95 °FPassing clouds.8 mph41%29.83 "HgN/A
1:00 PM95 °FScattered clouds.7 mph39%29.86 "HgN/A
12:00 PM93 °FScattered clouds.7 mph47%29.92 "HgN/A
11:00 AM91 °FPassing clouds.10 mph49%29.95 "HgN/A
10:00 AM91 °FSunny.7 mph49%29.98 "Hg10 mi
9:00 AM90 °FSunny.10 mph52%29.98 "Hg10 mi
8:00 AM86 °FSunny.9 mph59%29.95 "Hg10 mi
7:00 AM82 °FSunny.6 mph62%29.95 "Hg10 mi
6:00 AM81 °FSunny.8 mph66%29.92 "Hg10 mi
5:00 AM81 °FClear.9 mph66%29.89 "Hg10 mi
Weather by CustomWeather, © 2014

See weather overviewHow to use our weather pages